This is the latest recevied weather packets stored in our database for station/object WD7OO. If no packets are shown the sender has not sent any weather packets the latest 1 day(s).
| Time | Temp. | Humidity | Pressure | Rain* | Wind** | Luminosity | Snow |
|---|---|---|---|---|---|---|---|
| 1778042355 | 7.78° C | 88% | 1010.7 hPa | 0 mm | 0 m/s | 0 W/m² | - |
| 1778042052 | 7.78° C | 88% | 1010.4 hPa | 0 mm | 0 m/s | 0 W/m² | - |
| 1778041750 | 7.78° C | 87% | 1010.2 hPa | 0 mm | 0 m/s | 0 W/m² | - |
| 1778041449 | 7.78° C | 86% | 1010.3 hPa | 0 mm | 0 m/s | 0 W/m² | - |
| 1778041147 | 7.78° C | 86% | 1010.1 hPa | 0 mm | 0 m/s | 0 W/m² | - |
| 1778040844 | 7.78° C | 87% | 1010.4 hPa | 0 mm | 0 m/s | 0 W/m² | - |
| 1778040541 | 7.78° C | 88% | 1010.3 hPa | 0 mm | 0 m/s | 0 W/m² | - |
| 1778040238 | 7.78° C | 87% | 1010 hPa | 0 mm | 0 m/s | 0 W/m² | - |
| 1778039934 | 7.78° C | 87% | 1010 hPa | 0 mm | 0 m/s | 0 W/m² | - |
| 1778039632 | 7.78° C | 86% | 1009.9 hPa | 0 mm | 0 m/s | 0 W/m² | - |
| 1778039329 | 7.78° C | 86% | 1009.9 hPa | 0 mm | 0 m/s | 0 W/m² | - |
| 1778039026 | 7.78° C | 86% | 1009.9 hPa | 0 mm | 0 m/s | 0 W/m² | - |
| 1778038723 | 8.33° C | 85% | 1010.1 hPa | 0 mm | 0 m/s | 0 W/m² | - |
| 1778038420 | 8.33° C | 85% | 1010.1 hPa | 0 mm | 0 m/s | 0 W/m² | - |
| 1778038117 | 8.33° C | 84% | 1010.1 hPa | 0 mm | 0 m/s | 0 W/m² | - |
| 1778037813 | 8.33° C | 83% | 1010.2 hPa | 0 mm | 0 m/s | 0 W/m² | - |
| 1778037510 | 8.33° C | 83% | 1010.1 hPa | 0 mm | 0 m/s | 0 W/m² | - |
| 1778037208 | 8.33° C | 84% | 1010.2 hPa | 0 mm | 0 m/s | 0 W/m² | - |
| 1778036905 | 8.33° C | 80% | 1010.4 hPa | 0 mm | 0 m/s | 0 W/m² | - |
| 1778036603 | 8.33° C | 77% | 1010.4 hPa | 0 mm | 0 m/s | 0 W/m² | - |
| 1778036300 | 8.33° C | 77% | 1010.1 hPa | 0 mm | 0 m/s | 0 W/m² | - |
| 1778035996 | 8.33° C | 80% | 1010.2 hPa | 0 mm | 0 m/s | 0 W/m² | - |
| 1778035693 | 8.33° C | 77% | 1010.1 hPa | 0 mm | 0 m/s | 0 W/m² | - |
| 1778035390 | 8.33° C | 77% | 1010.1 hPa | 0 mm | 0 m/s | 0 W/m² | - |
| 1778035086 | 8.33° C | 79% | 1009.9 hPa | 0 mm | 0 m/s | 0 W/m² | - |
* Rain latest hour (hover to see other rain measurements)
** Current wind speed in m/s (hover to see current wind gust speed)